• In Belarus
  • List of Countries
  • For 7 days
  • Water Temperature
  • Satellite Maps
  • Weather Map
  • Weather Widgets
  • user-avatar
    Login

    Hourly Weather Zahariha

    Today, 19 February, Tuesday

    Time Temperature Precipitation Wind Pressure Humidity
    00:00 -13°C° 0 mm 3 mps 748 mmHg 86%
    01:00 -12°C° 0 mm 4 mps 747 mmHg 84%
    02:00 -12°C° 0 mm 5 mps 747 mmHg 82%
    03:00 -11°C° 0 mm 5 mps 746 mmHg 80%
    04:00 -10°C° 0 mm 6 mps 744 mmHg 79%
    05:00 -10°C° 0 mm 6 mps 743 mmHg 77%
    06:00 -10°C° 0 mm 6 mps 743 mmHg 78%
    07:00 -10°C° 0 mm 5 mps 742 mmHg 80%
    08:00 -10°C° 0 mm 5 mps 741 mmHg 81%
    09:00 -7°C° 0 mm 5 mps 741 mmHg 80%
    10:00 -6°C° 0 mm 6 mps 741 mmHg 80%
    11:00 -4°C° 0 mm 6 mps 740 mmHg 79%
    12:00 -4°C° 0 mm 6 mps 740 mmHg 81%
    13:00 -2°C° 0 mm 5 mps 740 mmHg 83%
    14:00 -2°C° 0 mm 5 mps 740 mmHg 85%
    15:00 -2°C° 0 mm 5 mps 739 mmHg 86%
    16:00 -2°C° 0 mm 4 mps 739 mmHg 88%
    17:00 -2°C° 0 mm 4 mps 739 mmHg 89%
    18:00 -3°C° 0 mm 4 mps 738 mmHg 90%
    19:00 -3°C° 0 mm 4 mps 738 mmHg 91%
    20:00 -4°C° 0 mm 4 mps 737 mmHg 92%
    21:00 -4°C° 0 mm 4 mps 737 mmHg 92%
    22:00 -4°C° 0 mm 4 mps 736 mmHg 92%
    23:00 -5°C° 0 mm 4 mps 735 mmHg 92%

    Tomorrow, 20 February, Wednesday

    Time Temperature Precipitation Wind Pressure Humidity
    00:00 -4°C° 0.1 mm 4 mps 735 mmHg 91%
    01:00 -3°C° 0.1 mm 4 mps 734 mmHg 91%
    02:00 -4°C° 0.1 mm 5 mps 733 mmHg 91%
    03:00 -2°C° 0.1 mm 5 mps 733 mmHg 91%
    04:00 -2°C° 0.1 mm 5 mps 732 mmHg 90%
    05:00 -2°C° 0.1 mm 5 mps 731 mmHg 90%
    06:00 -2°C° 0.2 mm 5 mps 731 mmHg 90%
    07:00 -1°C° 0.2 mm 5 mps 730 mmHg 91%
    08:00 -1°C° 0.2 mm 5 mps 730 mmHg 92%
    09:00 -1°C° 0 mm 5 mps 730 mmHg 93%
    10:00 -1°C° 0 mm 5 mps 730 mmHg 93%
    11:00 0°C° 0 mm 5 mps 730 mmHg 94%
    12:00 0°C° 0.1 mm 5 mps 730 mmHg 94%
    13:00 0°C° 0.1 mm 5 mps 730 mmHg 94%
    14:00 0°C° 0.1 mm 5 mps 730 mmHg 94%
    15:00 0°C° 0 mm 5 mps 730 mmHg 94%
    16:00 -1°C° 0 mm 4 mps 730 mmHg 93%
    17:00 -1°C° 0 mm 4 mps 730 mmHg 93%
    18:00 -1°C° 0.1 mm 4 mps 730 mmHg 93%
    19:00 -1°C° 0.1 mm 4 mps 730 mmHg 93%
    20:00 -1°C° 0.1 mm 4 mps 730 mmHg 93%
    21:00 -1°C° 0.1 mm 4 mps 730 mmHg 93%
    22:00 0°C° 0.1 mm 3 mps 729 mmHg 93%
    23:00 0°C° 0.1 mm 3 mps 729 mmHg 94%

    Day after tomorrow, 21 February, Thursday

    Time Temperature Precipitation Wind Pressure Humidity
    00:00 -1°C° 0.1 mm 3 mps 729 mmHg 95%
    01:00 -1°C° 0.1 mm 2 mps 729 mmHg 95%
    02:00 -1°C° 0.1 mm 2 mps 729 mmHg 96%
    03:00 -1°C° 0.2 mm 2 mps 729 mmHg 96%
    04:00 -1°C° 0.2 mm 2 mps 729 mmHg 96%
    05:00 -1°C° 0.2 mm 2 mps 729 mmHg 96%
    06:00 -1°C° 0.2 mm 2 mps 729 mmHg 96%
    07:00 -1°C° 0.2 mm 2 mps 730 mmHg 96%
    08:00 -1°C° 0.2 mm 2 mps 730 mmHg 96%
    09:00 -1°C° 0.3 mm 3 mps 731 mmHg 96%
    10:00 -1°C° 0.3 mm 3 mps 731 mmHg 96%
    11:00 -1°C° 0.3 mm 3 mps 732 mmHg 96%
    12:00 -3°C° 0.4 mm 4 mps 733 mmHg 93%
    13:00 -6°C° 0.4 mm 6 mps 733 mmHg 89%
    14:00 -8°C° 0.4 mm 7 mps 734 mmHg 86%
    15:00 -9°C° 0.2 mm 7 mps 735 mmHg 85%
    16:00 -11°C° 0.2 mm 7 mps 736 mmHg 84%
    17:00 -12°C° 0.2 mm 7 mps 738 mmHg 84%
    18:00 -13°C° 0.1 mm 7 mps 739 mmHg 82%
    19:00 -13°C° 0.1 mm 7 mps 740 mmHg 81%
    20:00 -14°C° 0.1 mm 7 mps 741 mmHg 80%
    21:00 -14°C° 0 mm 6 mps 742 mmHg 79%
    22:00 -15°C° 0 mm 6 mps 742 mmHg 79%
    23:00 -16°C° 0 mm 6 mps 743 mmHg 79%

    22 February, Friday

    Time Temperature Precipitation Wind Pressure Humidity
    00:00 -16°C° 0 mm 6 mps 744 mmHg 77%
    01:00 -17°C° 0 mm 6 mps 745 mmHg 76%
    02:00 -17°C° 0 mm 6 mps 745 mmHg 74%
    03:00 -17°C° 0 mm 6 mps 746 mmHg 75%
    04:00 -17°C° 0 mm 6 mps 746 mmHg 76%
    05:00 -16°C° 0 mm 6 mps 747 mmHg 77%
    06:00 -16°C° 0 mm 6 mps 748 mmHg 77%
    07:00 -17°C° 0 mm 7 mps 748 mmHg 77%
    08:00 -17°C° 0 mm 7 mps 749 mmHg 76%
    09:00 -15°C° 0 mm 7 mps 749 mmHg 75%
    10:00 -15°C° 0 mm 7 mps 749 mmHg 74%
    11:00 -14°C° 0 mm 7 mps 749 mmHg 73%
    12:00 -14°C° 0 mm 7 mps 750 mmHg 72%
    13:00 -14°C° 0 mm 7 mps 750 mmHg 72%
    14:00 -14°C° 0 mm 7 mps 750 mmHg 71%
    15:00 -15°C° 0 mm 7 mps 751 mmHg 72%
    16:00 -15°C° 0 mm 6 mps 751 mmHg 74%
    17:00 -15°C° 0 mm 6 mps 752 mmHg 75%
    18:00 -16°C° 0 mm 6 mps 752 mmHg 76%
    19:00 -16°C° 0 mm 6 mps 753 mmHg 77%
    20:00 -16°C° 0 mm 6 mps 753 mmHg 78%
    21:00 -16°C° 0 mm 6 mps 754 mmHg 80%
    22:00 -15°C° 0 mm 5 mps 754 mmHg 81%
    23:00 -15°C° 0 mm 5 mps 754 mmHg 82%

    23 February, Saturday

    Time Temperature Precipitation Wind Pressure Humidity
    00:00 -17°C° 0 mm 5 mps 755 mmHg 83%
    01:00 -16°C° 0 mm 4 mps 755 mmHg 84%
    02:00 -16°C° 0 mm 4 mps 755 mmHg 85%
    03:00 -17°C° 0 mm 4 mps 755 mmHg 87%
    04:00 -17°C° 0 mm 4 mps 755 mmHg 88%
    05:00 -18°C° 0 mm 4 mps 755 mmHg 89%
    06:00 -17°C° 0 mm 3 mps 756 mmHg 90%
    07:00 -17°C° 0 mm 3 mps 756 mmHg 90%
    08:00 -16°C° 0 mm 3 mps 756 mmHg 91%
    09:00 -15°C° 0 mm 3 mps 756 mmHg 89%
    10:00 -14°C° 0 mm 3 mps 756 mmHg 87%
    11:00 -12°C° 0 mm 2 mps 757 mmHg 85%
    12:00 -10°C° 0 mm 2 mps 757 mmHg 84%
    13:00 -10°C° 0 mm 2 mps 757 mmHg 83%
    14:00 -9°C° 0 mm 2 mps 757 mmHg 82%
    15:00 -10°C° 0 mm 2 mps 757 mmHg 85%
    16:00 -10°C° 0 mm 1 mps 757 mmHg 88%
    17:00 -11°C° 0 mm 1 mps 757 mmHg 91%
    18:00 -11°C° 0 mm 1 mps 757 mmHg 91%
    19:00 -12°C° 0 mm 1 mps 758 mmHg 92%
    20:00 -12°C° 0 mm 1 mps 758 mmHg 92%
    21:00 -12°C° 0 mm 1 mps 758 mmHg 91%
    22:00 -12°C° 0 mm 1 mps 759 mmHg 90%
    23:00 -12°C° 0 mm 1 mps 759 mmHg 89%

    24 February, Sunday

    Time Temperature Precipitation Wind Pressure Humidity
    00:00 -12°C° 0 mm 1 mps 759 mmHg 88%
    01:00 -12°C° 0 mm 1 mps 759 mmHg 88%
    02:00 -13°C° 0 mm 1 mps 759 mmHg 88%
    03:00 -15°C° 0 mm 2 mps 759 mmHg 87%
    04:00 -15°C° 0 mm 2 mps 759 mmHg 87%
    05:00 -15°C° 0 mm 2 mps 759 mmHg 87%
    06:00 -14°C° 0 mm 2 mps 759 mmHg 85%
    07:00 -15°C° 0 mm 3 mps 759 mmHg 83%
    08:00 -14°C° 0 mm 3 mps 759 mmHg 81%
    09:00 -13°C° 0 mm 3 mps 759 mmHg 80%
    10:00 -12°C° 0 mm 4 mps 758 mmHg 79%
    11:00 -10°C° 0 mm 4 mps 758 mmHg 78%
    12:00 -10°C° 0 mm 4 mps 757 mmHg 79%
    13:00 -9°C° 0 mm 4 mps 757 mmHg 79%
    14:00 -8°C° 0 mm 5 mps 756 mmHg 79%
    15:00 -8°C° 0 mm 5 mps 755 mmHg 80%
    16:00 -8°C° 0 mm 5 mps 755 mmHg 81%
    17:00 -8°C° 0 mm 5 mps 754 mmHg 82%
    18:00 -8°C° 0 mm 5 mps 753 mmHg 82%
    19:00 -9°C° 0 mm 6 mps 752 mmHg 82%
    20:00 -9°C° 0 mm 6 mps 751 mmHg 82%
    21:00 -9°C° 0 mm 6 mps 750 mmHg 82%
    22:00 -9°C° 0 mm 6 mps 749 mmHg 83%
    23:00 -9°C° 0 mm 6 mps 748 mmHg 83%
    Show more